OneWeb SL0381

operational
NORAD ID: 49307 Int'l Des: 2021-090 Owner: ONEWEBN Country: UK Constellation: oneweb
LEOCIRCULARPOLARONEWEB_TYPE

Über OneWeb SL0381

Beschreibung wird geladen...

Live-Position

3D-Globus wird geladen...

Nächste Überflüge

Höhenverlauf

Altitude vs Time

uPlot chart will show altitude changes over time

Zweizeiliger Elementsatz

1 49307U 21090AE 26063.15939006 .00000081 00000-0 16621-3 0 9993
2 49307 87.9181 295.4088 0001442 74.2480 285.8813 13.20773535215965
Epoch: 4. März 2026 • Age: 22 hours

Aktueller Status

Höhe 1186.9 km
Geschwindigkeit 7.26 km/s
Subsatellitenpunkt 41.40°N, 161.17°E
Startdatum 14. Okt. 2021
Alter 4.3 years
Typ internet

Technische Details

Klassifizierung Payload
Masse 148.00 kg
Trockenmasse 140.00 kg
Gesamtmasse 148.00 kg
Länge 1.30 m
Durchmesser 1.00 m
Spannweite 5.00 m
Form Trapezoid+2 pan
Hersteller ONEWUS
Bus-Typ ARROW
Phasenstatus In Orbit
Besitzer/Staat ONEWEBN/UK

Große Konstellationen

Loading constellations...